STARLINK-37676, 69313

Orbit data source: Space-Track

STARLINK-37676, 69313 is a payload satellite owned by SpaceX/Seattle (US) in SSO that was launched on Sat, 30 May 2026 UTC via an FALCON 9 launch vehicle from the Air Force Western Test Range (AFWTR). Payload-class satellites include a variety of spacecraft equipped with specific instruments for various scientific and technological missions. These include communications satellites like Starlink; space stations such as the ISS; scientific satellites like the Hubble; Earth observation satellites from companies like Planet Labs, Umbra, and HawkEye 360; GPS; miniature CubeSats for education and research; and military/defense satellites.

Loading next visibility...
Identifier
69313, 2026-119T
Orbit
SSO
Country
Flag of USUS
Related business
Manufacturer
SpaceX/Seattle
Mission
Operational spacecraft
Bus & Motor
STARLINK V2MO, Unknown motor
Mass
575 kg wet, ~530 kg dry
Launch date (UTC)
2026-05-30 (2 months ago)
Launch vehicle
FALCON 9
Launch site
Air Force Western Test Range (AFWTR)
Object type
Payload
Rocket body
Debris
Shape & HBR
Unknown shape, 17.7 m
Radar Cross Section
Large (>1 m²)

Expand to show TLE details & history
Last TLE update: 15 hours ago

TLE from 15 hours ago
0 STARLINK-37676
1 69313U 26119T   26202.07903606 -.00008199  00000-0 -25206-3 0  9991
2 69313  97.2823 227.7339 0000406 314.2137  45.9072 15.33427046  9257
Epoch: 2026-07-21T01:53Z
TLE epoch observation values (Epoch: 2026-07-21T01:53:48.715Z)
Latitude
-0.00006°
Longitude
-99.57295°
Altitude
468.515 km
Speed
7.632 km/s
True Right ascension
15h 10m 56s
True Declination
0° 00' 00"
Sunlit
Object was in daylight at epoch
Visualization orbit readout
Latitude
Unknown
Longitude
Unknown
Altitude
Unknown
Speed
Unknown
Apparent Right ascension
Unknown
Apparent Declination
Unknown
Sunlit
N/A
Visualization observer readout
Local Sidereal Time
05:30:14
Azimuth
Unknown
Elevation
Unknown
Doppler factor
Unknown
Orbital elements
Apogee altitude
462.817 km
Perigee altitude
462.262 km
Semi-major axis
6,840.676 km
Eccentricity
0.00004
Inclination
97.2823°
RAAN
227.7339°
Arg. of periapsis
314.2137°
True anomaly
45.91054°
Mean anomaly
45.9072°
Eccentric anomaly
45.90887°
Mean motion
3.83614 °/min
Orbital period
93.84 mins
BSTAR
-0.00025206
Loading maneuver chart data...
Computing Atmospheric mass density...
Loading historical data...
Loading historical data...
Loading historical data...
Loading historical data...
Loading historical data...
Loading historical data...
Loading historical data...

Documentation

Showing up to 5 results
|